{"data":{"norad_id":51778,"epoch":"2026-09-20T00:44:27.487680Z","epoch_age_seconds":92387,"freshness":"FRESH","line1":"1 51778U 22017L   26263.03087370  .00000152  00000+0  15633-4 0  9996","line2":"2 51778  53.1603 165.5648 0001330 109.3406 250.7741 15.34390058252040","mean_motion":15.34390058,"eccentricity":0.000133,"inclination_deg":53.1603,"raan_deg":165.5648,"arg_perigee_deg":109.3406,"mean_anomaly_deg":250.7741,"bstar":1.5633e-5,"rev_number":25204,"period_min":93.848366162967,"perigee_km":461.82295440376,"apogee_km":463.64262576792,"semimajor_km":6840.8697900858,"source":"CELESTRAK","updated_at":"2026-09-20T09:00:39.937951Z"}}